Location: Berkeley
(37.8716°N, 122.2727°W)
Time: 21:50:13
(UTC-07:00)

A-11 Canister half - Visible Passes

Search period start: 07 June 2026 00:00
Search period end: 17 June 2026 00:00
Orbit: 1515 x 1685 km, 47.2° (Epoch: 7 June)

Date Brightness Start Highest point End Pass type
(mag) Time Alt. Az. Time Alt. Az. Time Alt. Az.
7 Jun 9.7 00:17:11 10° WNW 00:24:59 31° SW 00:25:24 31° SW visible
7 Jun 9.0 21:48:15 10° WNW 21:57:52 85° NNE 22:05:12 19° ESE visible
7 Jun 9.6 23:53:59 10° WNW 00:02:01 33° SW 00:03:22 32° SW visible
8 Jun 9.1 21:25:10 10° WNW 21:34:49 81° NNE 21:43:11 14° ESE visible
8 Jun 9.6 23:30:49 10° WNW 23:39:04 36° SW 23:41:22 32° SSW visible
9 Jun 9.1 21:02:05 10° WNW 21:11:46 78° NNE 21:21:05 10° ESE visible
9 Jun 9.6 23:07:38 10° WNW 23:16:07 39° SW 23:19:25 30° S visible
10 Jun 9.6 22:44:29 10° WNW 22:53:08 42° SW 22:57:30 27° S visible
11 Jun 9.5 22:21:21 10° WNW 22:30:10 45° SW 22:35:38 23° SSE visible
12 Jun 9.5 21:58:13 10° WNW 22:07:11 48° SW 22:13:48 18° SSE visible
13 Jun 9.5 21:35:05 10° WNW 21:44:12 51° SW 21:52:01 14° SSE visible
13 Jun 10.8 23:45:47 10° WSW 23:47:20 10° WSW 23:48:54 10° SW visible
14 Jun 9.5 21:11:57 10° WNW 21:21:13 54° SW 21:30:10 10° SSE visible
14 Jun 10.7 23:21:17 10° W 23:24:25 12° WSW 23:27:33 10° SW visible
15 Jun 9.4 20:48:51 10° WNW 20:58:13 58° SW 21:07:16 10° SSE visible
15 Jun 10.7 22:57:23 10° W 23:01:30 14° WSW 23:05:36 10° SSW visible
16 Jun 10.7 22:33:42 10° W 22:38:35 15° WSW 22:43:24 10° SSW visible
